�N����,����,����,����,����,�C��,���x,�~����,�S�V����,�ő�u�ԕ���,,,,,
,,,,,,,,,����,����,����,�N��,,
yyyy/mm/dd,hh:mm:ss,(16),16����,m/s,��,%,mm,KW/�u,(16),16����,m/s,Time,,
2016/10/1,1:00:00,14,�k��,1.6,10.9,94.7,0,0,13,���k��,3.1,22,,
2016/10/1,2:00:00,13,���k��,2.1,9.9,93.6,0,0,13,���k��,3.8,38,,
2016/10/1,3:00:00,13,���k��,2.4,9.3,93.4,0,0,13,���k��,3.8,48,,
2016/10/1,4:00:00,13,���k��,2.7,8.8,94.4,0,0,13,���k��,4.1,35,,
2016/10/1,5:00:00,13,���k��,2.9,8.3,94.6,0,0,6,�쓌,4.5,45,,
2016/10/1,6:00:00,13,���k��,1.7,9.1,93.3,0,0.03,13,���k��,3.9,3,,
2016/10/1,7:00:00,13,���k��,1.6,12.3,77.8,0,0.2,13,���k��,4.3,37,,
2016/10/1,8:00:00,13,���k��,1.6,15.7,63.8,0,0.4,12,��,3.4,3,,
2016/10/1,9:00:00,14,�k��,1.1,19.3,49,0,0.57,13,���k��,3.4,4,,
2016/10/1,10:00:00,12,��,1.2,21.3,29.3,0,0.69,12,��,3.4,58,,
2016/10/1,11:00:00,1,�k�k��,0.3,23.2,29.4,0,0.77,12,��,3.4,24,,
2016/10/1,12:00:00,8,��,1.5,21.7,35.8,0,0.78,8,��,5,32,,
2016/10/1,13:00:00,8,��,1.9,22.1,33.5,0,0.74,8,��,5,58,,
2016/10/1,14:00:00,8,��,3.3,21,38,0,0.64,8,��,6,57,,
2016/10/1,15:00:00,8,��,3,20.5,43.1,0,0.49,7,��쓌,6.4,46,,
2016/10/1,16:00:00,8,��,2.3,19.5,55.2,0,0.3,7,��쓌,6.5,15,,
2016/10/1,17:00:00,9,��쐼,0.6,17.4,68.6,0,0.1,8,��,4.3,20,,
2016/10/1,18:00:00,12,��,1.2,12.7,75.9,0,0,12,��,1.6,57,,
2016/10/1,19:00:00,12,��,1.8,9.5,83.1,0,0,12,��,2.4,59,,
2016/10/1,20:00:00,13,���k��,1.2,10.8,92.6,0,0,12,��,3.3,27,,
2016/10/1,21:00:00,13,���k��,1.4,9.6,92.4,0,0,12,��,3,12,,
2016/10/1,22:00:00,13,���k��,1.9,9.7,93.9,0,0,13,���k��,3.4,34,,
2016/10/1,23:00:00,13,���k��,1.6,9.2,94.5,0,0,13,���k��,3.4,20,,
2016/10/1,0:00:00,13,���k��,2.7,9.7,94.4,0,0,13,���k��,3.7,49,,
2016/10/2,1:00:00,13,���k��,0.7,8.4,91.9,0,0,13,���k��,3.6,32,,
2016/10/2,2:00:00,12,��,1.9,7.8,93.7,0,0,13,���k��,3.2,41,,
2016/10/2,3:00:00,16,�k,1.6,8.1,95.7,0,0,12,��,3.8,6,,
2016/10/2,4:00:00,12,��,2.2,7.4,94.7,0,0,12,��,3.9,32,,
2016/10/2,5:00:00,12,��,2.3,7,94.6,0,0,12,��,3.6,0,,
2016/10/2,6:00:00,12,��,1.9,7.9,95.6,0,0.03,12,��,3.2,7,,
2016/10/2,7:00:00,13,���k��,2,11.1,86.6,0,0.18,13,���k��,4.4,47,,
2016/10/2,8:00:00,13,���k��,1.1,14.9,71.9,0,0.37,13,���k��,3.4,4,,
2016/10/2,9:00:00,13,���k��,0.7,17.6,53.7,0,0.53,12,��,2.4,35,,
2016/10/2,10:00:00,9,��쐼,1.1,21.5,47.5,0,0.68,9,��쐼,3.1,51,,
2016/10/2,11:00:00,8,��,3,22.2,47.6,0,0.66,8,��,4.9,4,,
2016/10/2,12:00:00,7,��쓌,2.6,21.4,48.8,0,0.69,9,��쐼,5,36,,
2016/10/2,13:00:00,6,�쓌,1.2,22.1,52.6,0,0.62,5,���쓌,5.2,3,,
2016/10/2,14:00:00,10,�쐼,3.9,22.2,45.5,0,0.39,10,�쐼,7.4,44,,
2016/10/2,15:00:00,10,�쐼,1.9,22,48.7,0,0.27,10,�쐼,7,7,,
2016/10/2,16:00:00,11,���쐼,3.3,21,49.2,0,0.13,10,�쐼,6.3,59,,
2016/10/2,17:00:00,11,���쐼,4,19.4,55.9,0,0.05,11,���쐼,6.9,50,,
2016/10/2,18:00:00,13,���k��,3,16.7,61.4,0,0,11,���쐼,6.4,15,,
2016/10/2,19:00:00,14,�k��,0.8,14.5,72.7,0,0,13,���k��,3.8,10,,
2016/10/2,20:00:00,6,�쓌,1.7,13.5,82.3,0,0,12,��,2.5,11,,
2016/10/2,21:00:00,12,��,1.1,12.9,87.4,0,0,1,�k�k��,3.7,34,,
2016/10/2,22:00:00,15,�k�k��,0.5,12.2,88.2,0,0,12,��,2.7,8,,
2016/10/2,23:00:00,13,���k��,2,12.7,90.1,0,0,13,���k��,3.2,57,,
2016/10/2,0:00:00,13,���k��,2.3,13.2,89.1,0,0,14,�k��,4,37,,
2016/10/3,1:00:00,13,���k��,0.9,13.2,87.1,0,0,13,���k��,3.4,28,,
2016/10/3,2:00:00,12,��,1.2,12.3,85.7,0,0,14,�k��,2.3,23,,
2016/10/3,3:00:00,14,�k��,1.3,10,86.3,0,0,13,���k��,2.7,19,,
2016/10/3,4:00:00,13,���k��,1.6,11.3,92.9,0,0,12,��,3.1,48,,
2016/10/3,5:00:00,12,��,2.9,11.9,94,0,0,13,���k��,4,59,,
2016/10/3,6:00:00,12,��,2.3,12.1,92.1,0,0.01,13,���k��,3.8,1,,
2016/10/3,7:00:00,13,���k��,0.8,14.4,86.1,0,0.11,13,���k��,3.2,30,,
2016/10/3,8:00:00,11,���쐼,1.6,14.9,84.3,0,0.09,12,��,3,24,,
2016/10/3,9:00:00,15,�k�k��,0.7,15.2,83.4,0,0.07,12,��,2.8,19,,
2016/10/3,10:00:00,16,�k,1,17,81,0,0.18,1,�k�k��,2.9,34,,
2016/10/3,11:00:00,2,�k��,1.1,17.8,74.9,0,0.18,1,�k�k��,2,56,,
2016/10/3,12:00:00,16,�k,1.2,18.3,72.7,0,0.3,3,���k��,3.1,38,,
2016/10/3,13:00:00,2,�k��,1.2,18,75.8,0,0.22,2,�k��,3.1,31,,
2016/10/3,14:00:00,3,���k��,0.9,17.5,87.1,0,0.08,4,��,3.7,38,,
2016/10/3,15:00:00,4,��,1.6,17,91.7,2,0.03,4,��,3.1,59,,
2016/10/3,16:00:00,9,��쐼,1.4,17.5,94.4,0,0.04,8,��,3.9,50,,
2016/10/3,17:00:00,8,��,3.3,17.7,94.8,0.5,0.01,7,��쓌,6.7,43,,
2016/10/3,18:00:00,7,��쓌,2.3,17.9,95.7,0,0,8,��,5.5,0,,
2016/10/3,19:00:00,9,��쐼,1.8,18.6,96.6,1.5,0,7,��쓌,5.7,38,,
2016/10/3,20:00:00,14,�k��,3.9,16.1,90.7,0,0,14,�k��,8.6,47,,
2016/10/3,21:00:00,13,���k��,1.9,15,93.6,0.5,0,14,�k��,6.8,7,,
2016/10/3,22:00:00,13,���k��,2.5,14.5,94.8,0,0,12,��,4.6,48,,
2016/10/3,23:00:00,11,���쐼,0.9,14.4,95.5,0.5,0,14,�k��,4.6,22,,
2016/10/3,0:00:00,10,�쐼,4.8,21.3,98.8,0.5,0,9,��쐼,9.5,57,,
2016/10/4,1:00:00,10,�쐼,6.6,22.6,69,0,0,12,��,13.4,59,,
2016/10/4,2:00:00,11,���쐼,7.3,20.9,66.2,0,0,10,�쐼,17.7,29,,
2016/10/4,3:00:00,11,���쐼,7.6,20.9,60,0,0,11,���쐼,12.7,59,,
2016/10/4,4:00:00,11,���쐼,6.3,19.4,65.1,0,0,11,���쐼,14.4,16,,
2016/10/4,5:00:00,11,���쐼,8.4,20.1,52.3,0,0,12,��,16.2,45,,
2016/10/4,6:00:00,11,���쐼,7.9,19.4,52,0,0.02,12,��,17.1,25,,
2016/10/4,7:00:00,11,���쐼,6.8,19.7,58.3,0,0.18,11,���쐼,14.4,3,,
2016/10/4,8:00:00,12,��,9.3,21,43.6,0,0.38,11,���쐼,17.2,50,,
2016/10/4,9:00:00,11,���쐼,4.6,21.8,42.8,0,0.55,12,��,15.7,13,,
2016/10/4,10:00:00,15,�k�k��,5.6,20.5,36,0,0.57,14,�k��,11.8,57,,
2016/10/4,11:00:00,14,�k��,6.9,21.2,32.3,0,0.7,14,�k��,12.3,29,,
2016/10/4,12:00:00,13,���k��,7.6,20.5,31.2,0,0.76,14,�k��,14,49,,
2016/10/4,13:00:00,13,���k��,6.1,20.7,30.4,0,0.72,14,�k��,13.1,24,,
2016/10/4,14:00:00,14,�k��,4.6,18.8,34.3,0,0.62,14,�k��,10.4,47,,
2016/10/4,15:00:00,13,���k��,5.3,18.7,33.7,0,0.48,12,��,11.7,55,,
2016/10/4,16:00:00,13,���k��,8.2,15.6,40.6,0,0.28,14,�k��,14.2,25,,
2016/10/4,17:00:00,14,�k��,3.4,13.4,44.6,0,0.07,13,���k��,15.1,0,,
2016/10/4,18:00:00,15,�k�k��,3.5,12.1,46.3,0,0,13,���k��,7.1,53,,
2016/10/4,19:00:00,15,�k�k��,4.5,11.8,50.1,0,0,15,�k�k��,9,40,,
2016/10/4,20:00:00,15,�k�k��,3.2,11.3,50.4,0,0,15,�k�k��,11.1,6,,
2016/10/4,21:00:00,15,�k�k��,4.1,11.3,51,0,0,14,�k��,9.1,44,,
2016/10/4,22:00:00,14,�k��,4.3,11.1,50.3,0,0,15,�k�k��,9.4,13,,
2016/10/4,23:00:00,15,�k�k��,3.2,10.4,55.7,0,0,15,�k�k��,7.7,10,,
2016/10/4,0:00:00,14,�k��,3.3,9.7,60.7,0,0,15,�k�k��,7.4,27,,
2016/10/5,1:00:00,15,�k�k��,4,10,59.9,0,0,1,�k�k��,8.6,56,,
2016/10/5,2:00:00,13,���k��,2.9,8.5,59.4,0,0,15,�k�k��,8.1,3,,
2016/10/5,3:00:00,13,���k��,3.4,9.1,56.8,0,0,13,���k��,7.3,27,,
2016/10/5,4:00:00,12,��,2.9,8.2,61.8,0,0,14,�k��,5.8,18,,
2016/10/5,5:00:00,13,���k��,2.6,6.7,68.4,0,0,14,�k��,5.3,28,,
2016/10/5,6:00:00,12,��,1.7,4.5,76,0,0.02,12,��,5.5,20,,
2016/10/5,7:00:00,8,��,0.9,7.4,74.1,0,0.16,7,��쓌,2.9,37,,
2016/10/5,8:00:00,3,���k��,0.3,10.5,52,0,0.36,4,��,1.8,37,,
2016/10/5,9:00:00,5,���쓌,2.1,12.2,40.3,0,0.43,6,�쓌,3.3,55,,
2016/10/5,10:00:00,5,���쓌,1.9,13.1,41.2,0,0.63,6,�쓌,3.9,53,,
2016/10/5,11:00:00,5,���쓌,2.6,13.5,42.5,0,0.69,5,���쓌,4.9,54,,
2016/10/5,12:00:00,6,�쓌,3.2,13.9,45.5,0,0.74,6,�쓌,5.7,58,,
2016/10/5,13:00:00,6,�쓌,2.8,14,45.5,0,0.63,6,�쓌,6.5,20,,
2016/10/5,14:00:00,6,�쓌,2.5,13.8,52.4,0,0.5,6,�쓌,5.8,4,,
2016/10/5,15:00:00,5,���쓌,2.9,14.4,58.2,0,0.32,5,���쓌,5.7,25,,
2016/10/5,16:00:00,4,��,1.2,13.1,65.4,0,0.12,7,��쓌,4.4,0,,
2016/10/5,17:00:00,5,���쓌,1.8,13.3,70,0,0.03,6,�쓌,5.7,59,,
2016/10/5,18:00:00,10,�쐼,0.7,11.5,75.4,0,0,8,��,7.2,13,,
2016/10/5,19:00:00,9,��쐼,0.8,11.3,79.7,0,0,11,���쐼,2.7,42,,
2016/10/5,20:00:00,11,���쐼,1,10.9,85.6,0,0,9,��쐼,3.8,0,,
2016/10/5,21:00:00,12,��,1,10.6,90.4,0.5,0,13,���k��,2.9,14,,
2016/10/5,22:00:00,13,���k��,1.8,10.3,92.6,2.5,0,12,��,3.1,11,,
2016/10/5,23:00:00,13,���k��,1.9,10.2,93.9,2.5,0,14,�k��,3.8,2,,
2016/10/5,0:00:00,14,�k��,2,10.2,94.9,2,0,14,�k��,3.5,0,,
2016/10/6,1:00:00,14,�k��,3.2,9.9,95,3.5,0,14,�k��,6.4,39,,
2016/10/6,2:00:00,14,�k��,3.7,9.7,95.2,2,0,1,�k�k��,8.9,35,,
2016/10/6,3:00:00,14,�k��,3.6,9.6,95.9,1.5,0,16,�k,7.9,40,,
2016/10/6,4:00:00,13,���k��,3.1,9.8,96.3,0.5,0,1,�k�k��,8,5,,
2016/10/6,5:00:00,14,�k��,5.4,9.9,96.1,0,0,7,��쓌,11.1,56,,
2016/10/6,6:00:00,14,�k��,3.9,10.4,96.2,0,0.01,15,�k�k��,10.5,17,,
2016/10/6,7:00:00,14,�k��,1.8,11.1,96,0.5,0.04,14,�k��,5.7,1,,
2016/10/6,8:00:00,16,�k,4,13.8,77.6,0,0.25,1,�k�k��,8.5,45,,
2016/10/6,9:00:00,15,�k�k��,6.7,15.6,55.7,0,0.54,15,�k�k��,13,52,,
2016/10/6,10:00:00,15,�k�k��,4.7,17.4,55.4,0,0.66,15,�k�k��,13,24,,
2016/10/6,11:00:00,14,�k��,5,17.8,47.7,0,0.74,13,���k��,11,28,,
2016/10/6,12:00:00,14,�k��,3.7,17.5,51.1,0,0.57,14,�k��,8.6,31,,
2016/10/6,13:00:00,14,�k��,4.6,18.3,46.7,0,0.51,15,�k�k��,8.8,59,,
2016/10/6,14:00:00,16,�k,4.2,17.1,50.2,0,0.33,14,�k��,9.5,0,,
2016/10/6,15:00:00,1,�k�k��,3.9,16.7,51.9,0,0.32,15,�k�k��,7.6,12,,
2016/10/6,16:00:00,14,�k��,2.3,15.4,54,0,0.24,14,�k��,6.6,29,,
2016/10/6,17:00:00,10,�쐼,1.1,9,66.7,0,0.07,14,�k��,4,12,,
2016/10/6,18:00:00,14,�k��,1.4,9,78.3,0,0,13,���k��,3.6,29,,
2016/10/6,19:00:00,14,�k��,3.4,10.1,75.7,0,0,14,�k��,7.4,39,,
2016/10/6,20:00:00,15,�k�k��,2.5,9.5,76,0,0,15,�k�k��,7.8,38,,
2016/10/6,21:00:00,10,�쐼,2.1,6.7,78.2,0,0,16,�k,6.8,0,,
2016/10/6,22:00:00,2,�k��,1.2,5.7,86.8,0,0,1,�k�k��,2.3,52,,
2016/10/6,23:00:00,15,�k�k��,0.6,3.7,89.6,0,0,11,���쐼,2.4,20,,
2016/10/6,0:00:00,15,�k�k��,2.3,7.1,89.9,0,0,1,�k�k��,4.9,52,,
2016/10/7,1:00:00,14,�k��,1.6,5.8,76.1,0,0,15,�k�k��,5.5,3,,
2016/10/7,2:00:00,14,�k��,3.1,5.8,84,0,0,14,�k��,6.6,51,,
2016/10/7,3:00:00,14,�k��,3.3,6.9,59.3,0,0,14,�k��,7.9,1,,
2016/10/7,4:00:00,2,�k��,2.8,4.8,67.4,0,0,13,���k��,5.5,2,,
2016/10/7,5:00:00,13,���k��,1.8,0.9,78.3,0,0,2,�k��,3.7,2,,
2016/10/7,6:00:00,5,���쓌,2,2,85.3,0,0.02,12,��,5.7,35,,
2016/10/7,7:00:00,15,�k�k��,1.1,7.3,62.1,0,0.18,15,�k�k��,2.1,50,,
2016/10/7,8:00:00,10,�쐼,0.9,8.8,44,0,0.38,14,�k��,2.5,26,,
2016/10/7,9:00:00,10,�쐼,2,10.4,33.9,0,0.56,10,�쐼,3.6,55,,
2016/10/7,10:00:00,7,��쓌,2.9,10.7,41.2,0,0.68,6,�쓌,5.6,44,,
2016/10/7,11:00:00,6,�쓌,3.6,11.8,42.6,0,0.75,7,��쓌,5.9,51,,
2016/10/7,12:00:00,7,��쓌,2.8,12,41.3,0,0.75,8,��,6,46,,
2016/10/7,13:00:00,7,��쓌,2.9,12.3,43.7,0,0.64,8,��,5.2,56,,
2016/10/7,14:00:00,6,�쓌,3.9,12.3,48.4,0,0.61,6,�쓌,6.5,55,,
2016/10/7,15:00:00,7,��쓌,2,12.7,49.8,0,0.46,7,��쓌,5.6,1,,
2016/10/7,16:00:00,8,��,1.5,12.1,52.2,0,0.27,8,��,3.1,39,,
2016/10/7,17:00:00,6,�쓌,0.5,7.1,59.2,0,0.07,6,�쓌,3.7,29,,
2016/10/7,18:00:00,13,���k��,1,4.8,73.2,0,0,1,�k�k��,2,18,,
2016/10/7,19:00:00,13,���k��,0.9,3.9,83.7,0,0,12,��,2.3,45,,
2016/10/7,20:00:00,13,���k��,1.3,4.2,91.2,0,0,12,��,2.8,29,,
2016/10/7,21:00:00,12,��,2.5,3.6,90.7,0,0,12,��,3.5,47,,
2016/10/7,22:00:00,12,��,2.2,4.1,91.1,0,0,13,���k��,3.4,4,,
2016/10/7,23:00:00,12,��,2.6,3.5,91.2,0,0,12,��,3.8,55,,
2016/10/7,0:00:00,12,��,1.4,3.6,92.9,0,0,12,��,3.9,10,,
2016/10/8,1:00:00,12,��,1.7,3.2,92.5,0,0,12,��,2.8,30,,
2016/10/8,2:00:00,12,��,1.9,3.1,92.6,0,0,12,��,2.7,55,,
2016/10/8,3:00:00,12,��,2.1,3.8,94,0,0,12,��,3,23,,
2016/10/8,4:00:00,13,���k��,2.5,4.3,93.6,0,0,13,���k��,3.7,46,,
2016/10/8,5:00:00,13,���k��,2.1,5.3,91.5,0,0,1,�k�k��,3.1,34,,
2016/10/8,6:00:00,13,���k��,1.7,5.7,88,0,0.01,13,���k��,3.1,37,,
2016/10/8,7:00:00,13,���k��,1.8,6.1,87.4,0,0.06,12,��,3.4,27,,
2016/10/8,8:00:00,16,�É�,0,8.8,86,0,0.16,14,�k��,2.2,17,,
2016/10/8,9:00:00,12,��,0.7,9.8,78.1,0,0.18,11,���쐼,1.9,16,,
2016/10/8,10:00:00,13,���k��,0.5,10.3,79.8,0,0.11,1,�k�k��,2.4,43,,
2016/10/8,11:00:00,2,�k��,0.6,10.6,83.1,0,0.07,9,��쐼,7.2,31,,
2016/10/8,12:00:00,1,�k�k��,0.7,10.9,86.7,0,0.05,2,�k��,2.7,7,,
2016/10/8,13:00:00,3,���k��,1.6,10.8,85.6,0,0.08,2,�k��,2.7,35,,
2016/10/8,14:00:00,2,�k��,1.4,11,84.7,0,0.08,3,���k��,3.3,25,,
2016/10/8,15:00:00,7,��쓌,0.9,13,92.9,0,0.06,6,�쓌,2.5,48,,
2016/10/8,16:00:00,13,���k��,0.5,11.8,90.2,0,0.02,8,��,3.3,7,,
2016/10/8,17:00:00,14,�k��,1.5,11.3,89.6,0,0.01,1,�k�k��,2.2,42,,
2016/10/8,18:00:00,14,�k��,1.7,11.2,92.9,0,0,13,���k��,3.7,13,,
2016/10/8,19:00:00,14,�k��,3.1,10.4,92.4,0,0,14,�k��,5.5,37,,
2016/10/8,20:00:00,13,���k��,2.8,9.7,94.1,0.5,0,8,��,5.7,3,,
2016/10/8,21:00:00,13,���k��,3.6,9.2,94.5,1,0,13,���k��,7.1,9,,
2016/10/8,22:00:00,14,�k��,3.6,9.2,95.6,0,0,13,���k��,6.3,28,,
2016/10/8,23:00:00,14,�k��,2.6,9.3,95.3,0,0,13,���k��,5.6,5,,
2016/10/8,0:00:00,13,���k��,1.2,9.6,95.3,0,0,13,���k��,4.8,20,,
2016/10/9,1:00:00,13,���k��,1.1,9.8,94.9,0.5,0,14,�k��,3.2,19,,
2016/10/9,2:00:00,12,��,1.4,9.8,94.4,0,0,14,�k��,2.5,23,,
2016/10/9,3:00:00,13,���k��,0.8,9.8,95.1,0,0,12,��,1.8,1,,
2016/10/9,4:00:00,13,���k��,1.3,9.7,95.4,0,0,13,���k��,2.4,46,,
2016/10/9,5:00:00,10,�쐼,1.4,8.3,95,0,0,10,�쐼,3,57,,
2016/10/9,6:00:00,14,�k��,2.3,9.8,95.7,0,0.01,14,�k��,5.3,50,,
2016/10/9,7:00:00,12,��,6,15.3,67.4,0,0.04,11,���쐼,10.5,59,,
2016/10/9,8:00:00,11,���쐼,7.9,16,52.2,0,0.12,12,��,15,55,,
2016/10/9,9:00:00,12,��,7.4,17.3,48.3,0,0.23,12,��,12.6,37,,
2016/10/9,10:00:00,12,��,6.7,18.8,35.1,0,0.66,12,��,11.5,4,,
2016/10/9,11:00:00,12,��,7.7,19.3,37.7,0,0.74,12,��,12.6,40,,
2016/10/9,12:00:00,12,��,8,16.9,47.7,0,0.55,13,���k��,16.2,27,,
2016/10/9,13:00:00,13,���k��,4.3,16.7,40,0,0.62,11,���쐼,11.5,5,,
2016/10/9,14:00:00,13,���k��,3,16.9,48.6,0,0.4,14,�k��,12.8,8,,
2016/10/9,15:00:00,14,�k��,2.8,14.9,55.5,0,0.33,14,�k��,13.5,15,,
2016/10/9,16:00:00,12,��,3,13.8,53.2,0,0.27,14,�k��,7.9,24,,
2016/10/9,17:00:00,14,�k��,3,11.8,57,0,0.06,13,���k��,5.5,53,,
2016/10/9,18:00:00,13,���k��,1.9,8.7,67,0,0,1,�k�k��,6,2,,
2016/10/9,19:00:00,1,�k�k��,0.6,5.2,73.6,0,0,13,���k��,3.7,11,,
2016/10/9,20:00:00,12,��,2.8,4.4,83.7,0,0,12,��,3.6,49,,
2016/10/9,21:00:00,11,���쐼,1.5,3.2,89.9,0,0,13,���k��,3.1,1,,
2016/10/9,22:00:00,13,���k��,1.3,3.5,91.3,0,0,13,���k��,3.1,39,,
2016/10/9,23:00:00,10,�쐼,1.4,2.3,91.6,0,0,1,�k�k��,4,14,,
2016/10/9,0:00:00,12,��,0.7,1.3,92.7,0,0,14,�k��,2.1,32,,
2016/10/10,1:00:00,12,��,2.2,1,94.6,0,0,13,���k��,3.8,19,,
2016/10/10,2:00:00,14,�k��,1.7,2.2,94.8,0,0,14,�k��,3.5,38,,
2016/10/10,3:00:00,13,���k��,1.5,0.9,95.2,0,0,12,��,3.6,28,,
2016/10/10,4:00:00,15,�k�k��,1,1.1,95.7,0,0,13,���k��,5,36,,
2016/10/10,5:00:00,12,��,1.3,1.1,95.2,0,0,12,��,2.9,20,,
2016/10/10,6:00:00,12,��,1.3,0.9,95.1,0,0.01,12,��,4.1,6,,
2016/10/10,7:00:00,13,���k��,0.9,4.3,95.2,0,0.1,12,��,3.1,10,,
2016/10/10,8:00:00,12,��,1.7,9.1,69.8,0,0.36,13,���k��,3.4,30,,
2016/10/10,9:00:00,14,�k��,1.9,11.8,40,0,0.55,15,�k�k��,3.4,45,,
2016/10/10,10:00:00,8,��,1.9,13.2,32.3,0,0.67,8,��,3.8,54,,
2016/10/10,11:00:00,7,��쓌,2.9,13.7,39.5,0,0.75,8,��,5.8,7,,
2016/10/10,12:00:00,12,��,5.4,14.9,29.3,0,0.74,12,��,8.7,57,,
2016/10/10,13:00:00,12,��,7.3,14.2,32.5,0,0.62,13,���k��,11.9,51,,
2016/10/10,14:00:00,11,���쐼,6.5,13.9,33.1,0,0.65,12,��,11.8,19,,
2016/10/10,15:00:00,12,��,5,12.9,41.1,0,0.47,13,���k��,10.5,18,,
2016/10/10,16:00:00,14,�k��,3,10.5,48.1,0,0.16,15,�k�k��,8,8,,
2016/10/10,17:00:00,15,�k�k��,2.5,9.3,48.5,0,0.07,14,�k��,8.2,19,,
2016/10/10,18:00:00,10,�쐼,1.3,2.9,67.2,0,0,5,���쓌,3.1,4,,
2016/10/10,19:00:00,12,��,1.9,1.9,77.7,0,0,12,��,3.2,45,,
2016/10/10,20:00:00,15,�k�k��,0.9,-0.1,83.9,0,0,12,��,2.8,0,,
2016/10/10,21:00:00,13,���k��,1.8,0.6,89.3,0,0,12,��,3.3,53,,
2016/10/10,22:00:00,12,��,2.4,0.8,91.6,0,0,13,���k��,3.7,21,,
2016/10/10,23:00:00,13,���k��,2.4,2,91.8,0,0,13,���k��,4.2,32,,
2016/10/10,0:00:00,13,���k��,2,0.9,90,0,0,13,���k��,3.2,48,,
2016/10/11,1:00:00,14,�k��,2.1,3.3,91.1,0,0,14,�k��,4.9,45,,
2016/10/11,2:00:00,14,�k��,2,2.8,86.9,0,0,13,���k��,4,24,,
2016/10/11,3:00:00,15,�k�k��,0.9,3.2,85.3,0,0,13,���k��,5,31,,
2016/10/11,4:00:00,12,��,2.7,1.5,87.8,0,0,12,��,4.7,36,,
2016/10/11,5:00:00,13,���k��,2.9,1.4,92.4,0,0,13,���k��,4.4,45,,
2016/10/11,6:00:00,13,���k��,1.8,1,92.7,0,0.02,12,��,4.1,38,,
2016/10/11,7:00:00,13,���k��,2.8,4.5,81.3,0,0.16,13,���k��,3.6,53,,
2016/10/11,8:00:00,12,��,1.5,8.2,69,0,0.36,13,���k��,3.6,2,,
2016/10/11,9:00:00,8,��,1.3,12.7,44.4,0,0.53,8,��,3.1,55,,
2016/10/11,10:00:00,6,�쓌,2.4,13,48.5,0,0.65,6,�쓌,3.8,47,,
2016/10/11,11:00:00,7,��쓌,2.4,14.2,32.5,0,0.72,5,���쓌,5.4,35,,
2016/10/11,12:00:00,6,�쓌,3.2,14.7,36.7,0,0.73,6,�쓌,5.7,51,,
2016/10/11,13:00:00,6,�쓌,2.8,15.4,39.3,0,0.68,6,�쓌,6.1,57,,
2016/10/11,14:00:00,7,��쓌,3.7,15.2,41.2,0,0.57,7,��쓌,7,29,,
2016/10/11,15:00:00,10,�쐼,5.1,15.1,42.7,0,0.41,8,��,8.8,26,,
2016/10/11,16:00:00,10,�쐼,4.8,13.6,43.6,0,0.24,10,�쐼,8.5,3,,
2016/10/11,17:00:00,9,��쐼,1.8,10.2,50.6,0,0.05,10,�쐼,6.8,0,,
2016/10/11,18:00:00,8,��,1.7,11.3,64.2,0,0,8,��,3.6,50,,
2016/10/11,19:00:00,9,��쐼,3.8,13.2,69,0,0,8,��,7.7,36,,
2016/10/11,20:00:00,11,���쐼,1.4,10,77.3,1.5,0,8,��,6.3,16,,
2016/10/11,21:00:00,8,��,1.2,9.5,90.2,3.5,0,14,�k��,3.4,27,,
2016/10/11,22:00:00,9,��쐼,2.3,10.2,93.9,0,0,8,��,3.6,59,,
2016/10/11,23:00:00,11,���쐼,1.9,9.6,93.3,2,0,14,�k��,6.6,36,,
2016/10/11,0:00:00,12,��,2.1,8.1,87,1,0,10,�쐼,9.1,19,,
2016/10/12,1:00:00,12,��,2.1,5.6,90.2,0,0,6,�쓌,3.1,7,,
2016/10/12,2:00:00,12,��,2.8,5.8,94.7,0,0,12,��,4.5,46,,
2016/10/12,3:00:00,13,���k��,2.4,5.9,95.4,0,0,14,�k��,4,23,,
2016/10/12,4:00:00,14,�k��,2.7,5.4,95.9,0,0,13,���k��,5.3,58,,
2016/10/12,5:00:00,12,��,2.5,2.4,93.3,0,0,14,�k��,3.7,11,,
2016/10/12,6:00:00,12,��,1.4,2,94.6,0,0.02,12,��,3.5,15,,
2016/10/12,7:00:00,11,���쐼,1.8,5.1,97.3,0,0.16,13,���k��,3.3,30,,
2016/10/12,8:00:00,12,��,1.2,9,77.4,0,0.35,12,��,3.1,8,,
2016/10/12,9:00:00,3,���k��,1,12.6,50.7,0,0.51,4,��,2.2,40,,
2016/10/12,10:00:00,4,��,2.6,13.6,42.8,0,0.64,3,���k��,4.3,39,,
2016/10/12,11:00:00,6,�쓌,2.5,13.6,45.2,0,0.52,6,�쓌,5.1,1,,
2016/10/12,12:00:00,13,���k��,3.8,13,35.7,0,0.4,13,���k��,6.6,50,,
2016/10/12,13:00:00,16,�k,2.7,12.8,42.4,0,0.41,2,�k��,7.4,5,,
2016/10/12,14:00:00,14,�k��,2.4,13.3,40.9,0,0.33,14,�k��,6.1,28,,
2016/10/12,15:00:00,15,�k�k��,3.7,11.9,42.4,0,0.32,1,�k�k��,8.4,37,,
2016/10/12,16:00:00,14,�k��,2.4,11,46.9,0,0.26,14,�k��,6.6,21,,
2016/10/12,17:00:00,14,�k��,1.4,7.4,56.5,0,0.05,13,���k��,2.8,5,,
2016/10/12,18:00:00,15,�k�k��,1.3,4.5,73.1,0,0,12,��,2.2,45,,
2016/10/12,19:00:00,10,�쐼,0.9,3.2,81,0,0,1,�k�k��,3.7,2,,
2016/10/12,20:00:00,12,��,0.5,0.5,84.4,0,0,11,���쐼,2.7,33,,
2016/10/12,21:00:00,10,�쐼,0.5,1.9,88.4,0,0,11,���쐼,7.6,51,,
2016/10/12,22:00:00,11,���쐼,0.7,2.1,92.5,0,0,12,��,1.8,33,,
2016/10/12,23:00:00,12,��,1.2,3.7,94,0,0,12,��,2.6,4,,
2016/10/12,0:00:00,14,�k��,1.9,4.7,92.3,0,0,13,���k��,3.6,10,,
2016/10/13,1:00:00,10,�쐼,2.4,3.7,89.2,0,0,10,�쐼,3.3,59,,
2016/10/13,2:00:00,12,��,1.8,3.4,89.1,0,0,11,���쐼,3.5,5,,
2016/10/13,3:00:00,12,��,2,0.9,86,0,0,11,���쐼,3.1,48,,
2016/10/13,4:00:00,9,��쐼,1.2,-0.4,93.5,0,0,13,���k��,4,19,,
2016/10/13,5:00:00,12,��,2.5,0.5,95,0,0,13,���k��,4.3,20,,
2016/10/13,6:00:00,12,��,2.2,0.3,94.8,0,0.02,13,���k��,3.4,22,,
2016/10/13,7:00:00,14,�k��,2,3.4,88.3,0,0.16,12,��,3.8,16,,
2016/10/13,8:00:00,13,���k��,1.1,7.3,66.6,0,0.36,13,���k��,3.5,24,,
2016/10/13,9:00:00,13,���k��,1.9,11,42.2,0,0.53,14,�k��,2.8,18,,
2016/10/13,10:00:00,6,�쓌,1.7,13.5,32.6,0,0.64,7,��쓌,4.4,52,,
2016/10/13,11:00:00,4,��,3.1,14.6,38.2,0,0.72,4,��,4.6,55,,
2016/10/13,12:00:00,5,���쓌,3.2,14,36.5,0,0.75,5,���쓌,5.3,24,,
2016/10/13,13:00:00,6,�쓌,3.2,14.6,39.6,0,0.71,3,���k��,6.5,12,,
2016/10/13,14:00:00,5,���쓌,3.4,13.8,38.3,0,0.63,5,���쓌,6.2,3,,
2016/10/13,15:00:00,6,�쓌,3.2,13.5,43.6,0,0.5,5,���쓌,6.6,22,,
2016/10/13,16:00:00,8,��,1.2,11.6,48.4,0,0.24,6,�쓌,5,2,,
2016/10/13,17:00:00,9,��쐼,0.3,7.9,60.9,0,0.02,9,��쐼,2.5,37,,
2016/10/13,18:00:00,12,��,1.6,3.9,74.7,0,0,12,��,2.5,48,,
2016/10/13,19:00:00,12,��,1.8,2.2,86.5,0,0,12,��,3,25,,
2016/10/13,20:00:00,13,���k��,1.5,1.7,88.6,0,0,13,���k��,2.8,28,,
2016/10/13,21:00:00,13,���k��,2.7,2.5,94.1,0,0,13,���k��,4.4,56,,
2016/10/13,22:00:00,1,�k�k��,0.5,3.1,93.9,0,0,14,�k��,4,18,,
2016/10/13,23:00:00,12,��,2,3.6,93.1,0,0,11,���쐼,4,30,,
2016/10/13,0:00:00,14,�k��,1.1,5.2,89.5,0,0,14,�k��,4.4,47,,
2016/10/14,1:00:00,13,���k��,2.1,4.9,86.4,0,0,13,���k��,3.3,44,,
2016/10/14,2:00:00,12,��,1.9,3,84.6,0,0,13,���k��,3.6,57,,
2016/10/14,3:00:00,13,���k��,2.5,2.1,89.9,0,0,12,��,4.3,0,,
2016/10/14,4:00:00,13,���k��,1.6,1.4,92.5,0,0,12,��,4.1,1,,
2016/10/14,5:00:00,14,�k��,2.6,2.8,93.2,0,0,13,���k��,4.3,52,,
2016/10/14,6:00:00,13,���k��,1.6,2,89.1,0,0.01,14,�k��,3.6,16,,
2016/10/14,7:00:00,12,��,2.5,4.9,83.1,0,0.15,12,��,4.1,54,,
2016/10/14,8:00:00,2,�k��,1.1,8.7,64.6,0,0.35,11,���쐼,4.5,6,,
2016/10/14,9:00:00,3,���k��,1.6,12.2,40.5,0,0.53,4,��,2.7,58,,
2016/10/14,10:00:00,4,��,2.1,13.4,41.5,0,0.64,4,��,4.8,25,,
2016/10/14,11:00:00,5,���쓌,2.8,13.1,47.3,0,0.71,6,�쓌,5.1,37,,
2016/10/14,12:00:00,6,�쓌,3.4,13.3,46.4,0,0.72,5,���쓌,5.1,53,,
2016/10/14,13:00:00,6,�쓌,3.1,13.6,47,0,0.67,5,���쓌,6.1,9,,
2016/10/14,14:00:00,6,�쓌,2.7,13.5,47.8,0,0.61,5,���쓌,5.5,9,,
2016/10/14,15:00:00,8,��,1.5,12,52.5,0,0.32,6,�쓌,4.6,17,,
2016/10/14,16:00:00,14,�k��,0.9,11.2,62.5,0,0.12,1,�k�k��,1.7,20,,
2016/10/14,17:00:00,15,�k�k��,1.5,8.6,56.3,0,0.04,14,�k��,3.1,21,,
2016/10/14,18:00:00,13,���k��,2,3.9,68.9,0,0,14,�k��,4,3,,
2016/10/14,19:00:00,13,���k��,2.1,3.5,79.6,0,0,13,���k��,3.5,39,,
2016/10/14,20:00:00,11,���쐼,1.8,2.9,84.9,0,0,12,��,3.9,39,,
2016/10/14,21:00:00,11,���쐼,2.5,1.3,87.2,0,0,11,���쐼,3.5,58,,
2016/10/14,22:00:00,11,���쐼,1.4,0.6,90.7,0,0,12,��,3.7,14,,
2016/10/14,23:00:00,13,���k��,2.5,-0.4,90.9,0,0,12,��,4.1,50,,
2016/10/14,0:00:00,13,���k��,2.3,-0.4,92.9,0,0,13,���k��,3.9,37,,
2016/10/15,1:00:00,12,��,1.8,0.6,92.3,0,0,12,��,3.9,33,,
2016/10/15,2:00:00,13,���k��,1.3,2.1,88.1,0,0,12,��,3.3,7,,
2016/10/15,3:00:00,12,��,2.6,0.4,81.8,0,0,13,���k��,4.6,7,,
2016/10/15,4:00:00,12,��,3.7,0.5,87.2,0,0,12,��,4.7,53,,
2016/10/15,5:00:00,14,�k��,1,-1.5,84.7,0,0,13,���k��,4.8,22,,
2016/10/15,6:00:00,12,��,2.3,-1.2,89.4,0,0.01,12,��,3.1,58,,
2016/10/15,7:00:00,13,���k��,1.3,3.3,81.2,0,0.15,12,��,4.6,14,,
2016/10/15,8:00:00,13,���k��,1.6,7.1,64,0,0.35,13,���k��,4.2,21,,
2016/10/15,9:00:00,9,��쐼,2.5,11.6,39.4,0,0.53,9,��쐼,4.1,55,,
2016/10/15,10:00:00,9,��쐼,3.6,13,49.4,0,0.65,8,��,7.4,36,,
2016/10/15,11:00:00,8,��,3.6,13.2,48.5,0,0.69,9,��쐼,6.3,6,,
2016/10/15,12:00:00,7,��쓌,2.8,13.2,49.6,0,0.73,7,��쓌,6.5,12,,
2016/10/15,13:00:00,6,�쓌,2.3,14.1,42.8,0,0.68,8,��,4.8,26,,
2016/10/15,14:00:00,5,���쓌,0.9,14.4,33.5,0,0.58,6,�쓌,4.2,3,,
2016/10/15,15:00:00,2,�k��,0.7,14.9,30.6,0,0.42,5,���쓌,2.6,18,,
2016/10/15,16:00:00,5,���쓌,1.3,13,40.1,0,0.23,6,�쓌,1.8,53,,
2016/10/15,17:00:00,16,�É�,0.2,6,59.9,0,0.04,6,�쓌,1.4,0,,
2016/10/15,18:00:00,12,��,2.3,4,77.3,0,0,12,��,3,56,,
2016/10/15,19:00:00,12,��,2.6,3.1,86.9,0,0,13,���k��,3.5,20,,
2016/10/15,20:00:00,11,���쐼,1.6,3.8,90.3,0,0,9,��쐼,3.5,42,,
2016/10/15,21:00:00,12,��,1.3,1.8,90.1,0,0,14,�k��,3.9,0,,
2016/10/15,22:00:00,12,��,2.5,2.5,92.4,0,0,12,��,3.3,50,,
2016/10/15,23:00:00,12,��,0.9,1.7,93.1,0,0,12,��,2.9,16,,
2016/10/15,0:00:00,13,���k��,0.6,1.8,93.3,0,0,12,��,2.1,6,,
2016/10/16,1:00:00,13,���k��,1.3,1.6,94.5,0,0,12,��,2.3,50,,
2016/10/16,2:00:00,12,��,1.1,3.3,96.1,0,0,12,��,3.3,30,,
2016/10/16,3:00:00,13,���k��,2.2,2,95.6,0,0,13,���k��,3.2,39,,
2016/10/16,4:00:00,12,��,2.3,1.3,95.4,0,0,12,��,4,7,,
2016/10/16,5:00:00,14,�k��,1.2,2.3,94.8,0,0,15,�k�k��,4.6,51,,
2016/10/16,6:00:00,13,���k��,1,3.2,95,0,0.01,12,��,4.1,44,,
2016/10/16,7:00:00,11,���쐼,2.1,3.8,96.1,0,0.05,12,��,3.4,24,,
2016/10/16,8:00:00,12,��,0.6,10.2,94.9,0,0.25,12,��,3.5,6,,
2016/10/16,9:00:00,3,���k��,0.7,16.8,54.4,0,0.5,12,��,1.6,18,,
2016/10/16,10:00:00,4,��,2.1,18.4,46.9,0,0.61,4,��,3.4,57,,
2016/10/16,11:00:00,3,���k��,1.7,20.5,42.7,0,0.68,4,��,2.8,49,,
2016/10/16,12:00:00,5,���쓌,3.2,18.5,52.6,0,0.69,5,���쓌,5.4,13,,
2016/10/16,13:00:00,16,�É�,0,19.5,44.8,0,0.64,5,���쓌,4.2,2,,
2016/10/16,14:00:00,16,�É�,0,19.8,50.2,0,0.54,16,�k,0.3,0,,
2016/10/16,15:00:00,16,�É�,0,19.5,51,0,0.38,6,�쓌,0.6,33,,
2016/10/16,16:00:00,16,�É�,0,16,62.3,0,0.18,5,���쓌,1.6,6,,
2016/10/16,17:00:00,12,��,0.7,12,73.4,0,0.02,11,���쐼,1.1,59,,
2016/10/16,18:00:00,13,���k��,0.3,9.8,83.3,0,0,12,��,2.5,27,,
2016/10/16,19:00:00,12,��,1.7,10.4,93.1,0,0,12,��,2.8,11,,
2016/10/16,20:00:00,13,���k��,1.7,10.1,93.4,0,0,12,��,3.3,19,,
2016/10/16,21:00:00,12,��,1.9,10,93.2,0,0,13,���k��,4.5,35,,
2016/10/16,22:00:00,12,��,2.5,8.7,89.9,0,0,12,��,3.6,51,,
2016/10/16,23:00:00,12,��,1.5,7.3,92.3,0,0,13,���k��,3.3,17,,